Lexington Weather

Lexington, Massachusetts, USA

46°F
10/22/2019 1:58am 
  • Lexington Conditions: Few Clouds
  • Temperature: 46.0°F / 7.8°CWarmer 0.5°F than last hour.
  • Dew Point: 44.4°FIncreased 1.4°Fsince last hour.
  • Relative Humidity: 94%Increased 3.0% since last hour.
  • Wind: Calm, 10-min avg: Calm, gust: None
  • Barometer: 30.12 in Steady
  • Visibility: 10 miles
  • Rain Today: 0.00 in
  •   

Regional Weather Roundup
for Boston, MA

        
000
ASUS41 KBOX 210810
RWRBOX

REGIONAL WEATHER ROUNDUP
NATIONAL WEATHER SERVICE BOSTON/NORTON MA
400 AM EDT MON OCT 21 2019

NOTE:  "FAIR" INDICATES FEW OR NO CLOUDS BELOW 12,000 FEET WITH NO 
SIGNIFICANT WEATHER AND/OR OBSTRUCTIONS TO VISIBILITY.

MAZALL-210900-
EASTERN MASSACHUSETTS
  
CITY           SKY/WX    TMP DP  RH WIND       PRES   REMARKS
BOSTON         CLOUDY    56  47  71 N8        30.04S                  
BEVERLY        CLOUDY    52  49  89 N5        30.04S                  
LAWRENCE       CLOUDY    50  48  93 NE5       30.07F                  
BEDFORD        CLOUDY    54  48  80 NW5       30.04R                  
BLUE HILL      NOT AVBL                                               
NORWOOD        CLOUDY    54  48  80 W3        30.04R                  
MARSHFIELD     CLOUDY    57  54  88 CALM      30.03R                  
PLYMOUTH       LGT RAIN  53  52  96 N6        30.01S                  
TAUNTON        CLOUDY    53  49  86 N3        30.01R                  
NEW BEDFORD    CLOUDY    53  50  89 NE6       29.99S                  
$$

MAZALL-210900-
CAPE COD AND THE ISLANDS
  
CITY           SKY/WX    TMP DP  RH WIND       PRES   REMARKS
FALMOUTH       CLOUDY    54  52  94 NE5       29.98F                  
HYANNIS        LGT RAIN  55  52  89 E7        29.96F                  
CHATHAM        NOT AVBL                                               
PROVINCETOWN   CLOUDY    55  54  96 NE7         N/A                   
NANTUCKET      CLOUDY    54  52  93 NE12      29.97S                  
MARTHAS VNYRD  LGT RAIN  54  52  93 E9        29.96F                  
$$
 
MAZALL-210900-
CENTRAL AND WESTERN MASSACHUSETTS
  
CITY           SKY/WX    TMP DP  RH WIND       PRES   REMARKS
WORCESTER      CLOUDY    47  47 100 N8        30.02F                  
FITCHBURG      FAIR      48  45  89 CALM      30.07R                  
ORANGE         FAIR      46  43  89 N3        30.07R                  
SPRINGFIELD    FAIR      47  47  98 N7        30.03S                  
WESTFIELD      FAIR      46  45  96 N7        30.04S                  
NORTH ADAMS    FOG       40  39  97 CALM      30.07S VSB 1/4          
PITTSFIELD     FOG       41  39  93 CALM      30.03S VSB 3/4          
$$
 
RIZALL-210900-
RHODE ISLAND
  
CITY           SKY/WX    TMP DP  RH WIND       PRES   REMARKS
PROVIDENCE     CLOUDY    52  49  89 NE12      30.00F                  
NEWPORT        CLOUDY    53  50  89 NE10      29.98F                  
BLOCK ISLAND   CLOUDY    54  53  97 NE14G23   29.96S                  
SMITHFIELD     CLOUDY   N/A N/A N/A NE5       30.01F                  
WESTERLY       MOCLDY    54  52  93 NE7       29.98F                  
$$
 
CTZALL-210900-
CONNECTICUT
  
CITY           SKY/WX    TMP DP  RH WIND       PRES   REMARKS
BRADLEY INTL   FAIR      50  46  86 N8        30.02S                  
HARTFORD       FAIR      51  48  89 N9        30.01F                  
BRIDGEPORT     CLOUDY    53  48  83 N10       29.99R                  
DANBURY        FAIR      44  43  96 CALM      30.02R FOG              
GROTON         MOCLDY    52  49  89 N10       29.96F                  
NEW HAVEN      CLOUDY    54  50  86 N12       29.99S                  
CHESTER        CLOUDY    50  48  93 N8        29.98S                  
MERIDEN        FAIR      49  46  90 N7        30.00F                  
WILLIMANTIC    CLOUDY    50  49  96 VRB3      30.01F                  
OXFORD         FAIR      48  45  89 N12       30.01R                  
$$

MEZ002-015-021-024-NHZ003-005-008-011-012-014-VTZ005-008-210900-
NORTHERN NEW ENGLAND
  
CITY           SKY/WX    TMP DP  RH WIND       PRES   REMARKS
PORTLAND ME    CLOUDY    49  46  90 CALM      30.07F                  
BANGOR ME      MOCLDY    45  43  93 CALM      30.09S                  
CONCORD NH     FOG       46  46 100 CALM      30.07S VSB 1/2          
MANCHESTER NH  CLOUDY    50  48  93 N8        30.05F                  
NASHUA NH      CLOUDY    50  50 100 NW6       30.07S                  
PORTSMOUTH NH  CLOUDY    50  48  92 N5        30.04                   
JAFFREY NH     FOG       46  44  93 CALM      30.06R VSB 1/2          
KEENE NH       FOG       43  43 100 CALM      30.07S VSB 1/4          
BURLINGTON VT  FAIR      40  37  89 CALM      30.08R                  
MT. WASHINGTON PTCLDY    37  32  81 W9          N/A  WCI  31          
$$

NYZ052-076-210900-
EASTERN NEW YORK
  
CITY           SKY/WX    TMP DP  RH WIND       PRES   REMARKS
ALBANY         FOG       46  44  93 N5        30.08S VSB 1/4          
NEW YORK CITY  CLOUDY    54  48  80 N10       29.98S                  
$$
 
ANZALL-210900-
MARINE OBSERVATIONS
  
STATION/POSITION TIME  TEMP    WIND        PRES    VSBY  WAVE
                       AIR SEA DIR/SP/G                  HT/PER
                 (UTC) (F)     (DEG/KT/KT) (MB)    (MI)  (FT/S)
BOSTON BUOY      0750   56 57   60/ 10/ 12 1015.9S         1/ 9
BUZZARDS BAY     0700   55      50/ 17/ 18 1015.5F
NANTUCKET SOUND  0740      57                N/A           1/ 3
MASS BAY-STELLWA 0704   56 56   60/  8/  8 1016.5F  1 7/8  1/ 3
ISLE OF SHOALS   0700   54     110/  4/  5 1017.4F
S OF BLOCK IS    0800      60                N/A           4/ 5
$$

......................KEY.........................
  SKY/WX - SKY CONDITION/PRESENT WEATHER
  TMP    - TEMPERATURE IN FAHRENHEIT
  DWPT   - DEWPOINT IN FAHRENHEIT
  RH     - RELATIVE HUMIDITY IN PERCENT
  WIND   - DIRECTION AND SPEED IN MPH
  PRES   - MEAN SEA LEVEL PRESSURE IN INCHES OF HG
  WCI    - WIND CHILL INDEX
  VSB    - VISIBILITY IN MILES
  HX     - HEAT INDEX
  TC     - TEMPERATURE IN CELSIUS
  VRB    - VARIABLE WIND DIRECTION
  N/A    - NOT AVAILABLE
  
      

Other recent Regional Weather Roundups

Tue Oct 22, 1:10am

Tue Oct 22, 1:00am

Tue Oct 22, 12:10am

Tue Oct 22, 12:00am

Mon Oct 21, 11:10pm

Mon Oct 21, 11:00pm

Mon Oct 21, 10:10pm

Mon Oct 21, 10:01pm

Mon Oct 21, 9:10pm

Mon Oct 21, 9:00pm

Mon Oct 21, 8:10pm

Mon Oct 21, 8:00pm

Mon Oct 21, 7:10pm

Mon Oct 21, 7:01pm

Mon Oct 21, 6:10pm

Mon Oct 21, 6:01pm

Mon Oct 21, 5:10pm

Mon Oct 21, 5:01pm

Mon Oct 21, 4:10pm

Mon Oct 21, 4:00pm

Mon Oct 21, 3:10pm

Mon Oct 21, 3:01pm

Mon Oct 21, 2:10pm

Mon Oct 21, 2:00pm

Mon Oct 21, 1:10pm

Mon Oct 21, 1:01pm

Mon Oct 21, 12:10pm

Mon Oct 21, 12:00pm

Mon Oct 21, 11:10am

Mon Oct 21, 11:00am

Mon Oct 21, 10:10am

Mon Oct 21, 10:00am

Mon Oct 21, 9:10am

Mon Oct 21, 9:00am

Mon Oct 21, 7:10am

Mon Oct 21, 7:00am

Mon Oct 21, 6:10am

Mon Oct 21, 6:00am

Mon Oct 21, 5:10am

Mon Oct 21, 5:00am

Mon Oct 21, 4:00am

Mon Oct 21, 3:10am

Mon Oct 21, 3:00am

Mon Oct 21, 2:10am

Mon Oct 21, 2:01am

Mon Oct 21, 1:10am

Mon Oct 21, 1:00am

Mon Oct 21, 12:10am

Mon Oct 21, 12:00am

Sun Oct 20, 11:10pm

Sun Oct 20, 11:00pm

Sun Oct 20, 10:10pm

Sun Oct 20, 10:00pm

Sun Oct 20, 9:10pm

Sun Oct 20, 9:01pm

Sun Oct 20, 8:10pm

Sun Oct 20, 8:00pm

Sun Oct 20, 7:10pm

Sun Oct 20, 7:01pm

Sun Oct 20, 6:10pm

Sun Oct 20, 6:00pm

Sun Oct 20, 5:10pm

Sun Oct 20, 5:00pm

Sun Oct 20, 4:10pm

Sun Oct 20, 4:00pm

Sun Oct 20, 3:10pm

Sun Oct 20, 3:00pm

Sun Oct 20, 2:10pm

Sun Oct 20, 2:01pm

Sun Oct 20, 1:10pm

Sun Oct 20, 1:01pm

Sun Oct 20, 12:10pm

Sun Oct 20, 12:00pm

Sun Oct 20, 11:10am

Sun Oct 20, 11:00am

Sun Oct 20, 10:10am

Sun Oct 20, 10:00am

Sun Oct 20, 9:10am

Sun Oct 20, 9:00am

Sun Oct 20, 8:10am

Sun Oct 20, 8:00am

Sun Oct 20, 7:10am

Sun Oct 20, 7:00am

Sun Oct 20, 6:10am

Sun Oct 20, 6:00am

Sun Oct 20, 5:10am

Sun Oct 20, 5:00am

Sun Oct 20, 4:10am

Sun Oct 20, 4:00am

Sun Oct 20, 3:10am

Sun Oct 20, 3:00am

Sun Oct 20, 2:10am

Sun Oct 20, 2:00am

Sun Oct 20, 1:10am

Sun Oct 20, 1:00am

Sun Oct 20, 12:10am

Sun Oct 20, 12:00am

Sat Oct 19, 11:10pm

Sat Oct 19, 11:00pm

Sat Oct 19, 10:10pm

Sat Oct 19, 10:00pm

Sat Oct 19, 9:10pm

Sat Oct 19, 9:00pm

Sat Oct 19, 8:10pm

Sat Oct 19, 8:00pm

Sat Oct 19, 7:10pm

Sat Oct 19, 7:00pm

Sat Oct 19, 6:10pm

Sat Oct 19, 6:00pm

Sat Oct 19, 5:10pm

Sat Oct 19, 5:00pm

Sat Oct 19, 4:10pm

Sat Oct 19, 4:00pm

Sat Oct 19, 3:10pm

Sat Oct 19, 3:01pm

Sat Oct 19, 2:10pm

Sat Oct 19, 2:00pm

Sat Oct 19, 1:10pm

Sat Oct 19, 1:01pm

Sat Oct 19, 12:10pm

Sat Oct 19, 12:00pm

Sat Oct 19, 11:10am

Sat Oct 19, 11:01am

Sat Oct 19, 10:10am

Sat Oct 19, 10:00am

Sat Oct 19, 9:10am

Sat Oct 19, 9:00am

Sat Oct 19, 8:10am

Sat Oct 19, 8:00am

Sat Oct 19, 7:10am

Sat Oct 19, 7:00am

Sat Oct 19, 6:10am

Sat Oct 19, 6:00am

Sat Oct 19, 5:10am

Sat Oct 19, 5:00am

Sat Oct 19, 4:10am

Sat Oct 19, 4:00am

Sat Oct 19, 3:10am

Sat Oct 19, 3:00am

Sat Oct 19, 2:10am

Sat Oct 19, 2:00am

Meta data:

ID: ab3930aa-fd32-491b-bc5e-13c577956580
Link: https://api.weather.gov/products/ab3930aa-fd32-491b-bc5e-13c577956580